This is the latest recevied weather packets stored in our database for station/object KI4BSX. If no packets are shown the sender has not sent any weather packets the latest 1 day(s).
| Time | Temp. | Humidity | Pressure | Rain* | Wind** | Luminosity | Snow |
|---|---|---|---|---|---|---|---|
| 1778028965 | 20° C | 68% | 1015.9 hPa | 0 mm | 0 m/s | - | - |
| 1778028662 | 20.56° C | 68% | 1016.1 hPa | 0 mm | 0 m/s | - | - |
| 1778028359 | 20.56° C | 66% | 1016 hPa | 0 mm | 0 m/s | - | - |
| 1778028055 | 20.56° C | 65% | 1016.1 hPa | 0 mm | 0 m/s | - | - |
| 1778027751 | 20.56° C | 65% | 1016.1 hPa | 0 mm | 0 m/s | - | - |
| 1778027448 | 20.56° C | 64% | 1016 hPa | 0 mm | 0 m/s | - | - |
| 1778027144 | 21.11° C | 64% | 1016 hPa | 0 mm | 0 m/s | - | - |
| 1778026840 | 21.11° C | 64% | 1015.7 hPa | 0 mm | 0 m/s | - | - |
| 1778026536 | 21.11° C | 62% | 1016.1 hPa | 0 mm | 0 m/s | - | - |
| 1778026234 | 21.67° C | 62% | 1016.1 hPa | 0 mm | 0 m/s | - | - |
| 1778025931 | 21.67° C | 61% | 1016.2 hPa | 0 mm | 0 m/s | - | - |
| 1778025628 | 21.67° C | 59% | 1015.9 hPa | 0 mm | 0.45 m/s, 120° | - | - |
| 1778025326 | 22.22° C | 59% | 1016.2 hPa | 0 mm | 0 m/s | - | - |
| 1778025022 | 22.22° C | 58% | 1015.9 hPa | 0 mm | 0 m/s | - | - |
| 1778024720 | 22.22° C | 56% | 1015.9 hPa | 0 mm | 0 m/s | - | - |
| 1778024417 | 22.78° C | 55% | 1015.9 hPa | 0 mm | 0 m/s | - | - |
| 1778024114 | 22.78° C | 54% | 1016 hPa | 0 mm | 0 m/s | - | - |
| 1778023811 | 23.33° C | 52% | 1015.9 hPa | 0 mm | 0 m/s | - | - |
| 1778023509 | 23.89° C | 51% | 1016 hPa | 0 mm | 0 m/s | - | - |
| 1778023206 | 25° C | 49% | 1015.6 hPa | 0 mm | 0.45 m/s, 25° | - | - |
| 1778022903 | 25.56° C | 48% | 1015.7 hPa | 0 mm | 0 m/s | - | - |
| 1778022602 | 26.11° C | 46% | 1015.9 hPa | 0 mm | 0.45 m/s, 58° | - | - |
| 1778022299 | 26.11° C | 46% | 1015.5 hPa | 0 mm | 0.45 m/s, 141° | - | - |
| 1778021995 | 27.22° C | 45% | 1015.6 hPa | 0 mm | 0.45 m/s, 67° | - | - |
| 1778021692 | 26.67° C | 45% | 1015.7 hPa | 0 mm | 0 m/s | - | - |
* Rain latest hour (hover to see other rain measurements)
** Current wind speed in m/s (hover to see current wind gust speed)